Location: Fort Worth, Tx
(32.7431°N, 97.3695°W)
Time: 07:26:23
(UTC-04:00)

Explorer 11/Cluster Stage 4 - Pass Details

Date: 31 January 2023
Orbit: 466 x 1241 km, 28.8° (Epoch: 02 April)

Event Time Altitude Azimuth Distance (km) Brightness Sun altitude
Exits shadow 07:13:25 - 235° (SW) 3,540 9.5 -15.3°
Reaches altitude 10° 07:14:37 10° 232° (SW) 3,171 9.3 -15.1°
Maximum altitude 07:22:17 46° 162° (SSE) 1,604 8.3 -13.5°
Drops below altitude 10° 07:29:43 10° 92° (E) 3,085 11.1 -12.0°
Sets 07:32:33 0° 87° (E) 3,972 11.8 -11.4°
